Location: Brivio
(45.7333°N, 9.4500°E)
Time: 21:50:26
(UTC+00:00)

NOSS 3-2 (A) - Pass Details

Date: 18 October 2019
Orbit: 816 x 1392 km, 63.4° (Epoch: 07 November)

Event Time Altitude Azimuth Distance (km) Brightness Sun altitude
Rises 19:48:00 0° 239° (WSW) 3,421 6.8 -34.4°
Reaches altitude 10° 19:50:27 10° 245° (WSW) 2,536 6.1 -34.8°
Enters shadow 19:56:01 47° 317° (NW) 1,247 4.2 -35.7°
